When you browse on this site, cookies collect data to enhance your experience and personalize the content and advertising you see.
Visit our Privacy Policy to learn more. By continuing to use the site, you agree to this use of cookies and data.
  • In Czech Republic
  • List of Countries
  • For 7 days
  • Water Temperature
  • Satellite Maps
  • Weather Map
  • Weather Widgets
  • user-avatar
    Login

    Hourly Weather Nowostawy

    Today, 20 February, Wednesday

    Time Temperature Precipitation Wind Pressure Humidity
    00:00 +4°C° 0 mm 4 mps 744 mmHg 81%
    01:00 +4°C° 0 mm 4 mps 744 mmHg 83%
    02:00 +4°C° 0 mm 2 mps 744 mmHg 89%
    03:00 +3°C° 0.3 mm 3 mps 744 mmHg 89%
    04:00 +4°C° 0.3 mm 4 mps 744 mmHg 90%
    05:00 +3°C° 0.3 mm 5 mps 744 mmHg 90%
    06:00 +2°C° 0 mm 5 mps 744 mmHg 91%
    07:00 +2°C° 0 mm 5 mps 745 mmHg 91%
    08:00 +1°C° 0 mm 4 mps 745 mmHg 92%
    09:00 +2°C° 0 mm 5 mps 745 mmHg 87%
    10:00 +3°C° 0 mm 6 mps 746 mmHg 83%
    11:00 +3°C° 0 mm 6 mps 746 mmHg 78%
    12:00 +3°C° 0.1 mm 6 mps 746 mmHg 77%
    13:00 +3°C° 0.1 mm 6 mps 746 mmHg 75%
    14:00 +3°C° 0.1 mm 6 mps 746 mmHg 74%
    15:00 +3°C° 0.1 mm 6 mps 746 mmHg 74%
    16:00 +3°C° 0.1 mm 6 mps 747 mmHg 74%
    17:00 +3°C° 0.1 mm 6 mps 747 mmHg 74%
    18:00 +3°C° 0.1 mm 6 mps 747 mmHg 75%
    19:00 +2°C° 0.1 mm 5 mps 747 mmHg 76%
    20:00 +2°C° 0.1 mm 5 mps 748 mmHg 76%
    21:00 +2°C° 0 mm 5 mps 748 mmHg 76%
    22:00 +2°C° 0 mm 5 mps 748 mmHg 76%
    23:00 +2°C° 0 mm 5 mps 749 mmHg 76%

    Tomorrow, 21 February, Thursday

    Time Temperature Precipitation Wind Pressure Humidity
    00:00 +2°C° 0 mm 5 mps 749 mmHg 77%
    01:00 +3°C° 0 mm 4 mps 749 mmHg 78%
    02:00 +1°C° 0 mm 4 mps 749 mmHg 79%
    03:00 +1°C° 0 mm 4 mps 749 mmHg 81%
    04:00 +1°C° 0 mm 4 mps 749 mmHg 83%
    05:00 +1°C° 0 mm 4 mps 749 mmHg 85%
    06:00 +1°C° 0 mm 4 mps 750 mmHg 84%
    07:00 +1°C° 0 mm 4 mps 750 mmHg 84%
    08:00 +1°C° 0 mm 4 mps 750 mmHg 84%
    09:00 +3°C° 0 mm 4 mps 750 mmHg 81%
    10:00 +3°C° 0 mm 5 mps 750 mmHg 79%
    11:00 +3°C° 0 mm 5 mps 750 mmHg 77%
    12:00 +5°C° 0 mm 5 mps 750 mmHg 75%
    13:00 +5°C° 0 mm 6 mps 750 mmHg 73%
    14:00 +7°C° 0 mm 6 mps 749 mmHg 70%
    15:00 +6°C° 0 mm 5 mps 749 mmHg 71%
    16:00 +6°C° 0 mm 4 mps 749 mmHg 72%
    17:00 +7°C° 0 mm 3 mps 748 mmHg 72%
    18:00 +6°C° 0.3 mm 4 mps 748 mmHg 74%
    19:00 +5°C° 0.3 mm 4 mps 748 mmHg 76%
    20:00 +5°C° 0.3 mm 5 mps 747 mmHg 78%
    21:00 +5°C° 0.8 mm 5 mps 747 mmHg 80%
    22:00 +5°C° 0.8 mm 5 mps 747 mmHg 83%
    23:00 +4°C° 0.8 mm 6 mps 746 mmHg 85%

    Day after tomorrow, 22 February, Friday

    Time Temperature Precipitation Wind Pressure Humidity
    00:00 +3°C° 0.6 mm 5 mps 746 mmHg 86%
    01:00 +3°C° 0.6 mm 5 mps 746 mmHg 87%
    02:00 +3°C° 0.6 mm 5 mps 745 mmHg 88%
    03:00 +3°C° 0.4 mm 5 mps 745 mmHg 89%
    04:00 +3°C° 0.4 mm 5 mps 745 mmHg 91%
    05:00 +3°C° 0.4 mm 5 mps 744 mmHg 92%
    06:00 +3°C° 0.6 mm 5 mps 745 mmHg 92%
    07:00 +2°C° 0.6 mm 5 mps 745 mmHg 91%
    08:00 +2°C° 0.6 mm 6 mps 746 mmHg 91%
    09:00 -1°C° 0.5 mm 6 mps 747 mmHg 88%
    10:00 -2°C° 0.5 mm 6 mps 748 mmHg 84%
    11:00 -4°C° 0.5 mm 6 mps 749 mmHg 80%
    12:00 -4°C° 0.1 mm 6 mps 750 mmHg 76%
    13:00 -4°C° 0.1 mm 6 mps 751 mmHg 71%
    14:00 -4°C° 0.1 mm 6 mps 752 mmHg 67%
    15:00 -4°C° 0 mm 6 mps 753 mmHg 65%
    16:00 -5°C° 0 mm 6 mps 754 mmHg 64%
    17:00 -5°C° 0 mm 6 mps 755 mmHg 62%
    18:00 -6°C° 0 mm 6 mps 755 mmHg 62%
    19:00 -8°C° 0 mm 6 mps 756 mmHg 62%
    20:00 -7°C° 0 mm 5 mps 757 mmHg 61%
    21:00 -7°C° 0 mm 5 mps 757 mmHg 59%
    22:00 -8°C° 0 mm 5 mps 758 mmHg 57%
    23:00 -8°C° 0 mm 5 mps 759 mmHg 54%

    23 February, Saturday

    Time Temperature Precipitation Wind Pressure Humidity
    00:00 -8°C° 0 mm 5 mps 759 mmHg 53%
    01:00 -8°C° 0 mm 5 mps 759 mmHg 51%
    02:00 -8°C° 0 mm 5 mps 759 mmHg 50%
    03:00 -8°C° 0 mm 5 mps 759 mmHg 51%
    04:00 -8°C° 0 mm 5 mps 760 mmHg 51%
    05:00 -10°C° 0 mm 5 mps 760 mmHg 52%
    06:00 -10°C° 0 mm 5 mps 760 mmHg 53%
    07:00 -9°C° 0 mm 4 mps 760 mmHg 54%
    08:00 -9°C° 0 mm 4 mps 760 mmHg 55%
    09:00 -8°C° 0 mm 4 mps 761 mmHg 52%
    10:00 -8°C° 0 mm 4 mps 761 mmHg 50%
    11:00 -7°C° 0 mm 5 mps 761 mmHg 48%
    12:00 -7°C° 0 mm 4 mps 761 mmHg 46%
    13:00 -5°C° 0 mm 4 mps 761 mmHg 44%
    14:00 -5°C° 0 mm 4 mps 761 mmHg 42%
    15:00 -5°C° 0 mm 4 mps 761 mmHg 41%
    16:00 -5°C° 0 mm 4 mps 761 mmHg 41%
    17:00 -5°C° 0 mm 4 mps 761 mmHg 41%
    18:00 -5°C° 0 mm 3 mps 761 mmHg 44%
    19:00 -5°C° 0 mm 3 mps 761 mmHg 47%
    20:00 -6°C° 0 mm 3 mps 761 mmHg 50%
    21:00 -5°C° 0 mm 2 mps 761 mmHg 51%
    22:00 -5°C° 0 mm 2 mps 761 mmHg 52%
    23:00 -5°C° 0 mm 2 mps 761 mmHg 53%

    24 February, Sunday

    Time Temperature Precipitation Wind Pressure Humidity
    00:00 -5°C° 0 mm 2 mps 761 mmHg 53%
    01:00 -5°C° 0 mm 2 mps 761 mmHg 53%
    02:00 -5°C° 0 mm 2 mps 761 mmHg 54%
    03:00 -5°C° 0 mm 2 mps 761 mmHg 54%
    04:00 -5°C° 0 mm 2 mps 760 mmHg 54%
    05:00 -5°C° 0 mm 2 mps 760 mmHg 55%
    06:00 -5°C° 0 mm 2 mps 760 mmHg 54%
    07:00 -5°C° 0 mm 2 mps 760 mmHg 54%
    08:00 -5°C° 0 mm 2 mps 760 mmHg 53%
    09:00 -4°C° 0 mm 2 mps 760 mmHg 50%
    10:00 -3°C° 0 mm 2 mps 760 mmHg 46%
    11:00 -2°C° 0 mm 2 mps 760 mmHg 43%
    12:00 -2°C° 0 mm 3 mps 759 mmHg 46%
    13:00 -1°C° 0 mm 3 mps 759 mmHg 50%
    14:00 -1°C° 0 mm 3 mps 759 mmHg 54%
    15:00 -1°C° 0 mm 3 mps 759 mmHg 56%
    16:00 -1°C° 0 mm 3 mps 758 mmHg 58%
    17:00 -1°C° 0 mm 3 mps 758 mmHg 60%
    18:00 -1°C° 0 mm 2 mps 758 mmHg 63%
    19:00 -2°C° 0 mm 2 mps 758 mmHg 65%
    20:00 -2°C° 0 mm 2 mps 759 mmHg 68%
    21:00 -2°C° 0 mm 2 mps 759 mmHg 70%
    22:00 -2°C° 0 mm 2 mps 759 mmHg 72%
    23:00 0°C° 0 mm 1 mps 759 mmHg 74%

    25 February, Monday

    Time Temperature Precipitation Wind Pressure Humidity
    00:00 -2°C° 0 mm 2 mps 759 mmHg 76%
    01:00 -2°C° 0 mm 2 mps 759 mmHg 79%
    02:00 -2°C° 0 mm 2 mps 759 mmHg 81%
    03:00 -2°C° 0 mm 2 mps 758 mmHg 83%
    04:00 -2°C° 0 mm 2 mps 758 mmHg 85%
    05:00 -2°C° 0 mm 2 mps 758 mmHg 86%
    06:00 -2°C° 0 mm 2 mps 758 mmHg 87%
    07:00 -1°C° 0 mm 2 mps 758 mmHg 87%
    08:00 -1°C° 0 mm 3 mps 758 mmHg 87%
    09:00 -1°C° 0 mm 3 mps 758 mmHg 85%
    10:00 -1°C° 0 mm 3 mps 757 mmHg 84%
    11:00 0°C° 0 mm 3 mps 757 mmHg 82%
    12:00 0°C° 0 mm 3 mps 757 mmHg 80%
    13:00 -1°C° 0 mm 4 mps 756 mmHg 78%
    14:00 -1°C° 0 mm 4 mps 756 mmHg 77%
    15:00 0°C° 0 mm 4 mps 755 mmHg 76%
    16:00 0°C° 0 mm 4 mps 755 mmHg 75%
    17:00 +1°C° 0 mm 4 mps 755 mmHg 74%
    18:00 +1°C° 0 mm 4 mps 755 mmHg 78%
    19:00 0°C° 0 mm 4 mps 755 mmHg 83%
    20:00 0°C° 0 mm 4 mps 755 mmHg 87%
    21:00 -1°C° 0 mm 4 mps 755 mmHg 87%
    22:00 0°C° 0 mm 3 mps 755 mmHg 86%
    23:00 0°C° 0 mm 3 mps 755 mmHg 86%
    Show more